Lid_Strength_Index
4 4 3 3 2 1 1 0 0 1 1 0 -0 -0 -0 -0 0 0 0 0 0 0 1 0 1 -1 0 -0 -0 0 0 0
7 5 4 3 2 2 1 0 0 1 1 0 0 0 -0 0 -0 0 0 0 0 0 0 1 1 1 0 0 0 0 0 0
7 6 5 3 3 2 1 0 1 0 0 0 0 1 1 0 0 0 0 1 0 0 0 0 0 0 0 0 2 2 1 1
7 7 6 4 2 2 1 1 0 0 0 0 0 1 1 1 0 0 1 1 1 0 0 0 1 0 1 1 2 3 3 2
6 6 5 4 4 3 2 1 1 1 1 0 0 0 0 1 1 1 0 1 1 1 0 0 0 1 1 1 1 2 3 3
5 5 6 5 3 2 2 1 1 1 1 1 0 0 0 0 1 1 0 1 1 1 0 1 0 1 1 2 2 3 3 2
5 6 4 2 2 2 2 2 2 1 1 1 0 1 1 1 1 1 1 0 0 1 0 0 0 0 1 2 2 3 3 3
6 6 3 3 4 3 2 1 2 1 1 1 1 1 0 0 1 0 0 -0 0 0 0 0 0 1 2 2 2 3 2 3
7 4 3 4 5 5 4 3 2 1 2 2 2 2 1 1 0 -0 0 -0 0 0 0 0 0 1 1 2 3 3 3 2
5 4 4 5 5 5 5 3 3 2 2 3 3 3 2 1 1 0 -0 -0 0 0 1 1 1 2 3 3 3 4 3 2
5 4 4 4 4 3 3 4 4 5 3 3 4 4 3 3 3 2 2 1 0 0 0 0 1 1 2 2 3 3 4 3
7 4 5 4 3 3 4 4 5 6 4 3 3 4 5 4 3 2 3 2 1 1 0 0 1 1 2 2 2 2 3 3
8 4 4 3 4 4 3 4 4 3 2 2 3 4 4 4 3 3 3 2 2 1 0 0 1 1 1 1 2 3 3 3
8 6 3 4 4 4 4 4 3 3 3 3 3 3 4 3 3 3 3 3 2 1 1 1 0 1 1 1 1 2 2 3
8 5 4 4 5 4 4 4 4 3 3 3 3 3 3 3 3 3 3 2 2 2 2 2 1 1 1 1 1 1 2 2
8 5 4 4 4 4 3 3 4 3 3 3 3 3 3 3 3 2 3 2 2 1 1 1 1 0 1 1 1 1 1 1
7 7 7 6 5 5 4 4 4 3 3 3 3 3 3 3 3 3 3 2 1 1 1 1 1 1 1 2 2 2 2 1
7 8 7 7 6 5 5 4 3 4 3 3 3 3 3 3 3 3 3 3 2 2 2 1 1 1 1 2 1 1 1 1
7 6 6 6 7 7 5 5 4 5 4 4 3 3 3 2 3 3 2 3 2 2 2 1 1 1 1 1 1 1 2 1
6 6 6 6 7 7 6 6 6 5 4 5 4 4 4 3 3 3 3 2 1 1 1 1 1 1 1 2 2 1 2 2